User: anonymous
Location: La Vergne
(36.0160°N, 86.5820°W)
Time: 08:58:03
(UTC-05:00)
Language:

Cosmos 1703 Rocket - Orbit

View from above orbital plane
View from above orbital plane
View from above satellite
View from above satellite

Ground track
Ground track

The orbit data is extracted from the following two-line orbital elements,

1 16263U 85108B   14113.12427679  .00000629  00000-0  75361-4 0  6325
2 16263 082.5016 113.7838 0020936 173.5933 255.0405 14.82368272533818
Epoch (UTC): 23 April 2014 02:58:57
Eccentricity: 0.0020936
inclination: 82.5016°
perigee height: 607 km
apogee height: 636 km
right ascension of ascending node: 113.7838°
argument of perigee: 173.5933°
revolutions per day: 14.82368272
mean anomaly at epoch: 255.0405°
orbit number at epoch: 53381

The dashed part of the orbit path shows where the satellite is in the earth's shadow,  

DLR